Theta_e
350 352 346 338 336 340 342 346 346 347 346 345 344 344 343 341 337 332 333 337 342 343 342 336 328 330 338 339 337 338 338 339 339 340 341 341 341 340 341 342 343 344 344 344 342 342 342 342 342 342 343 343 342 341 341 341 340 340 339 339 339 340 340 339 339 339 338 337 337 337 337 337 336 336 336 337 337 337 336 335 334 333 333 334 334
350 350 347 339 337 340 341 345 346 348 346 345 345 344 343 339 335 333 336 341 343 342 338 330 328 336 338 337 338 339 339 340 340 341 341 340 341 341 341 343 344 344 344 343 342 342 341 342 342 342 343 343 341 341 340 340 340 340 340 339 339 339 339 339 338 337 337 336 336 336 336 337 336 336 335 335 335 334 333 332 332 333 332 333 333
350 349 348 341 337 339 341 344 346 348 346 346 344 344 342 337 335 335 340 341 341 340 335 329 333 339 338 336 337 339 340 341 340 340 341 340 341 341 342 343 344 344 344 343 342 342 342 342 342 343 343 342 341 341 340 340 341 340 340 339 339 338 338 338 337 336 336 335 336 336 336 336 336 335 334 333 331 329 326 326 331 333 332 332 332
351 348 348 343 338 339 342 344 345 346 345 345 343 342 339 336 336 338 341 340 340 338 333 332 337 339 337 336 337 340 340 339 339 340 341 341 342 342 343 344 344 344 344 343 342 342 342 342 342 343 343 343 342 341 341 341 341 340 340 339 338 337 337 336 335 335 335 335 336 336 337 337 335 334 334 333 331 327 325 324 328 331 331 331 332
351 348 347 345 342 342 342 344 344 345 345 343 342 340 338 338 339 340 341 340 340 335 333 335 338 339 337 338 338 339 338 337 340 342 342 342 343 343 344 344 344 344 344 344 342 342 342 342 342 343 343 342 341 341 340 341 341 339 339 339 337 336 336 334 332 333 334 334 334 335 335 335 334 333 334 334 332 331 331 330 328 328 328 330 331
350 348 346 345 346 345 342 343 343 344 344 343 342 341 340 341 341 342 341 340 338 331 333 338 338 338 338 339 337 338 339 339 341 342 342 342 343 344 344 344 344 344 344 344 343 342 342 343 343 343 343 341 340 340 339 340 340 339 339 339 337 337 336 332 331 333 334 335 334 333 332 333 333 332 333 333 333 332 332 332 331 330 328 328 329
350 347 345 344 345 345 342 342 343 343 343 343 343 343 342 342 342 341 340 339 337 332 335 338 337 337 339 338 337 338 338 339 341 341 342 343 343 344 344 344 344 344 344 344 343 343 343 343 343 343 343 342 340 340 340 340 339 339 338 337 336 335 332 329 331 332 334 336 335 332 332 332 330 330 331 331 332 331 331 331 331 330 330 330 331
349 347 345 344 345 344 342 342 343 342 342 342 342 342 342 342 341 340 339 337 337 336 337 338 337 338 338 338 338 338 338 339 341 341 341 343 343 343 344 344 344 344 343 343 343 343 343 343 343 343 343 343 341 340 339 338 337 336 335 334 333 330 327 326 329 330 331 334 331 329 331 332 330 330 331 332 332 330 330 331 332 332 332 332 332
349 347 344 346 345 342 341 341 342 341 342 342 341 342 342 341 340 339 337 336 337 337 337 338 337 338 337 337 337 338 338 340 342 341 341 342 342 343 343 343 343 343 342 341 341 341 342 343 343 343 342 341 340 338 335 333 333 333 332 331 328 326 329 330 331 331 331 331 331 331 331 331 331 332 334 334 333 332 332 333 333 333 332 332 332
348 346 345 348 343 338 339 339 340 341 341 341 341 341 340 339 338 337 334 333 335 336 336 337 338 339 338 337 337 337 338 340 342 342 341 343 343 342 342 343 342 342 340 340 340 340 341 342 343 342 340 337 335 335 332 331 331 331 330 327 326 328 332 333 332 331 331 332 333 333 332 332 333 335 335 335 333 332 333 334 334 334 333 334 333
348 347 346 348 342 335 336 337 337 338 339 339 338 338 338 337 336 334 331 332 334 336 337 338 338 339 338 337 337 337 338 339 341 342 342 343 343 342 342 342 342 341 339 338 339 338 338 339 339 337 333 331 331 332 331 331 331 331 329 328 330 332 332 334 334 331 330 332 332 333 333 335 336 335 334 333 331 330 332 334 334 334 333 333 333
348 348 348 347 340 334 335 335 334 334 334 334 334 335 336 335 333 330 330 333 335 337 338 338 339 338 337 337 337 338 337 338 340 341 342 341 342 342 342 342 342 341 337 335 335 333 333 333 333 332 330 330 331 331 331 331 331 331 327 328 332 332 332 333 333 332 332 333 332 332 334 335 336 335 334 333 331 330 332 333 333 333 332 332 332
348 348 348 346 339 335 334 333 332 331 330 330 331 332 334 334 332 331 332 334 336 337 337 337 338 338 337 337 338 338 337 338 338 340 341 340 340 340 341 340 340 339 334 331 331 331 331 331 330 330 330 331 331 331 332 331 331 329 326 330 332 331 333 332 331 332 333 333 333 332 334 335 335 334 334 334 332 330 330 332 332 331 331 331 331
348 349 348 345 340 336 334 333 332 330 330 330 330 332 335 335 334 335 334 335 338 337 337 337 337 336 336 336 337 338 337 337 337 339 340 340 340 339 339 339 339 337 332 330 331 331 330 331 330 330 330 331 331 331 331 331 330 326 325 329 331 332 334 333 332 333 334 334 334 333 333 334 334 334 333 333 332 331 330 331 332 331 331 330 329
349 349 347 345 342 339 336 333 332 332 332 332 332 334 335 336 336 337 336 337 338 337 338 338 337 337 337 335 335 337 337 337 337 338 339 339 339 338 338 337 338 334 330 330 332 331 330 330 330 331 331 331 331 331 331 330 328 324 325 330 331 333 334 334 333 334 335 334 335 334 333 333 332 332 332 332 332 331 331 331 331 331 330 330 329
349 348 346 345 343 341 339 337 335 335 335 335 336 336 336 336 337 337 337 337 337 338 339 338 338 338 338 336 334 335 336 336 337 337 338 339 339 338 337 337 336 332 329 330 332 332 331 330 330 331 331 331 330 330 329 328 324 323 328 331 332 333 334 335 334 334 334 334 334 334 333 331 331 331 331 331 331 330 330 330 330 330 329 329 328
349 348 347 345 343 342 341 340 338 337 338 339 338 338 337 336 336 337 338 337 336 338 339 339 339 338 338 336 334 334 335 336 336 336 337 337 338 338 338 337 335 331 329 330 332 333 332 331 331 331 331 330 330 329 327 324 320 323 330 332 332 334 334 335 335 335 334 334 334 333 332 331 330 330 330 330 330 330 329 329 329 328 328 328 328
348 349 347 346 345 342 343 342 340 339 339 339 338 338 337 336 337 338 339 337 336 336 338 339 338 338 337 335 334 334 334 334 333 333 334 336 338 338 338 338 334 331 329 330 332 333 333 332 331 331 331 330 329 327 324 320 318 323 330 332 332 333 333 334 333 334 334 334 334 333 331 330 329 330 330 330 329 329 329 328 328 328 327 328 328
349 349 348 346 346 343 344 342 341 341 340 340 337 336 337 337 337 338 339 338 336 335 337 338 336 338 337 334 333 335 334 332 330 329 331 333 335 336 337 337 334 331 329 329 332 333 333 332 331 331 331 330 328 325 321 318 317 323 329 332 333 333 334 334 333 334 334 333 332 331 330 329 330 330 330 330 329 329 329 328 328 327 328 328 328
350 350 348 347 346 345 345 343 342 341 341 341 338 335 335 336 337 337 338 338 337 334 335 335 335 336 335 333 334 337 337 333 331 330 328 328 332 335 336 335 334 331 330 329 331 333 333 332 331 331 331 330 327 323 319 316 319 327 332 333 334 335 335 334 333 334 333 332 331 330 330 330 330 330 330 329 329 328 328 327 327 327 327 327 327
350 350 349 345 344 345 345 343 343 342 342 342 340 336 333 335 336 336 338 338 337 335 334 333 333 334 332 334 336 340 340 335 334 334 331 330 332 335 334 334 334 331 330 329 330 333 333 333 331 331 331 328 325 321 317 317 325 331 333 334 335 336 336 334 333 334 333 332 331 330 330 331 329 329 329 328 328 327 327 327 327 326 326 326 326
350 349 347 344 344 346 345 343 343 343 343 341 341 338 333 335 336 335 337 337 336 335 334 332 333 335 333 336 338 341 342 338 338 335 334 335 333 334 332 332 332 329 329 329 330 332 333 332 331 331 330 329 329 326 320 320 329 333 333 335 336 337 336 335 335 335 334 333 331 330 329 329 328 328 328 328 327 327 327 326 326 326 325 326 325
350 348 345 343 344 345 344 344 343 342 343 342 342 340 336 339 338 337 337 336 336 337 337 336 336 337 337 340 341 342 342 340 339 336 336 337 334 331 328 328 330 329 329 328 329 333 333 332 331 331 331 334 336 335 330 326 331 334 334 337 336 336 336 336 335 333 333 332 330 328 329 329 329 329 328 328 327 327 327 326 326 326 325 325 325
349 347 344 343 345 345 345 344 343 342 344 343 342 341 340 342 341 339 339 338 339 339 340 340 339 339 340 341 342 342 342 341 340 338 337 337 336 331 325 325 328 328 329 328 330 332 332 332 331 331 334 337 337 337 335 331 332 335 336 336 336 336 336 335 334 333 333 332 329 328 328 329 329 329 328 328 327 327 327 326 326 325 325 324 325
348 347 345 345 346 345 345 345 344 344 344 343 343 342 342 343 341 341 340 340 341 341 341 340 340 340 341 341 341 341 342 342 340 339 338 337 337 333 328 328 330 328 329 332 333 333 333 334 332 332 336 337 337 335 334 333 334 336 336 335 336 336 335 334 334 333 333 331 328 328 328 328 328 328 328 328 327 327 327 326 326 325 324 325 325
347 347 347 346 346 345 345 345 344 344 344 344 343 342 343 342 340 340 340 341 341 341 341 340 341 342 341 341 340 341 342 341 341 340 338 336 337 335 333 332 333 331 330 334 335 335 336 337 335 334 337 338 337 336 334 334 335 335 335 335 336 335 334 333 333 333 332 330 328 328 328 327 327 327 327 327 326 326 326 325 325 323 322 323 324
347 347 347 345 345 346 345 345 345 345 345 344 344 343 343 341 339 340 340 340 341 341 341 340 341 341 342 341 340 341 341 340 340 340 338 337 336 335 334 333 333 333 332 334 336 336 337 338 336 336 337 337 336 335 334 334 334 334 335 335 335 334 333 333 332 332 331 330 328 327 327 326 327 327 326 326 325 326 325 324 324 323 322 323 324
347 346 345 342 342 345 345 345 345 345 344 343 343 342 342 341 339 340 339 339 340 340 339 340 341 340 341 341 340 340 339 339 339 339 339 338 337 336 335 334 334 334 332 333 336 336 338 337 336 336 337 337 335 334 333 334 335 334 334 334 334 333 333 332 331 331 330 331 329 327 327 327 327 327 326 326 326 326 325 325 325 325 324 325 324
347 345 342 340 341 343 342 344 344 341 341 341 340 340 341 339 339 340 340 340 340 339 339 341 341 340 341 341 340 340 339 339 339 338 338 338 337 337 336 335 334 333 332 333 335 336 337 337 337 337 337 336 334 334 333 334 335 334 334 334 334 334 333 332 331 331 330 331 330 325 326 328 327 326 326 326 326 325 326 326 325 324 324 324 323
347 342 339 339 341 342 343 344 343 341 340 340 340 340 340 340 340 340 340 340 340 340 340 341 341 341 342 342 342 342 340 339 338 338 338 337 336 337 336 335 335 334 332 333 334 334 336 337 337 337 336 336 335 333 334 334 334 334 334 334 335 334 333 332 331 331 330 331 331 325 325 327 326 326 326 326 326 325 325 325 324 324 324 323 323
345 341 339 339 340 342 342 341 341 341 340 339 340 340 341 341 341 340 341 342 342 342 341 341 341 341 342 344 343 341 340 340 338 338 338 337 337 337 337 335 335 335 333 333 333 333 335 337 337 337 336 335 335 334 333 333 333 334 334 334 335 334 333 332 332 332 331 331 331 328 326 324 324 326 326 326 326 325 326 325 324 323 323 323 323
342 341 340 339 340 341 341 340 340 340 340 340 340 340 341 341 341 341 341 342 342 342 342 341 341 341 342 344 344 341 340 340 340 340 339 338 337 337 337 337 336 335 334 333 332 333 335 336 337 337 337 336 335 335 333 332 332 333 334 335 334 334 333 332 332 332 332 332 331 330 328 325 323 324 326 327 326 325 325 325 324 324 323 324 324
342 341 340 340 340 340 339 339 339 339 339 339 339 340 341 342 341 341 341 342 343 342 341 341 341 342 342 343 343 342 341 340 342 341 338 338 337 336 336 337 337 336 334 334 333 333 334 336 337 337 337 337 336 335 334 334 333 334 335 334 333 334 333 333 334 333 332 332 332 331 331 329 326 324 325 326 325 325 324 325 324 324 325 325 323
342 342 341 340 340 339 338 339 338 338 338 339 339 340 340 341 342 342 341 342 342 341 341 342 341 341 341 342 343 343 342 341 341 340 337 338 337 336 336 336 338 337 336 335 334 333 333 333 335 337 337 336 336 336 335 335 334 335 335 334 333 334 334 333 334 334 333 333 333 332 332 331 329 326 325 324 324 323 322 323 325 325 325 324 322
342 342 342 340 340 340 339 339 339 338 337 337 338 339 339 341 342 342 342 342 342 341 341 341 341 340 340 341 343 343 342 341 341 339 337 337 336 337 337 336 337 337 337 336 335 334 333 332 334 336 336 336 336 336 336 335 335 335 335 334 333 335 335 334 334 334 334 333 333 333 332 331 330 330 329 325 323 320 317 321 325 326 324 321 320
344 344 342 341 342 342 339 339 339 339 339 338 338 339 341 342 342 342 342 342 342 341 341 341 341 340 339 340 341 343 342 341 340 339 338 337 336 336 336 335 336 337 337 337 336 335 333 332 333 335 336 336 336 336 336 336 336 336 335 334 334 335 335 335 335 334 334 333 333 333 332 332 330 329 329 328 325 319 316 322 323 322 321 320 320
345 345 344 343 345 344 341 341 342 342 342 342 341 342 342 342 343 342 342 342 342 341 340 340 341 341 341 340 340 342 342 341 340 339 339 337 336 335 336 335 336 338 338 336 336 335 334 333 334 333 335 336 336 336 336 336 336 336 336 335 335 335 335 335 335 334 334 333 333 333 333 332 330 327 328 329 328 322 320 322 320 318 319 321 322
344 345 345 344 346 345 343 343 343 343 343 342 342 342 342 342 342 342 342 342 341 341 340 340 341 341 341 340 340 341 342 342 340 340 339 337 336 335 336 336 336 338 337 336 335 335 334 335 335 333 335 336 336 336 336 336 336 336 336 336 335 335 335 336 335 334 334 333 333 333 333 333 330 328 330 330 329 327 325 325 322 322 323 324 325
344 345 345 345 346 345 345 344 342 343 342 342 341 341 341 341 341 341 341 342 341 342 341 341 341 341 341 341 340 341 341 341 340 339 339 338 337 336 336 336 337 337 336 335 334 334 334 336 337 335 335 336 336 336 336 335 335 336 335 335 335 335 335 335 335 334 334 333 333 333 333 333 331 329 331 331 329 330 329 327 327 328 327 327 327
344 345 345 345 346 345 345 344 342 342 341 341 341 340 340 340 340 339 340 341 342 342 341 342 341 341 341 340 341 340 340 340 340 339 338 338 337 336 335 335 336 336 336 335 334 334 334 335 338 336 336 337 335 334 335 335 334 335 335 335 336 335 335 335 335 334 333 333 333 333 333 332 331 330 331 331 330 330 329 329 329 330 329 328 327
343 343 344 344 344 343 343 343 342 340 339 340 340 340 339 339 339 339 339 340 341 341 342 342 342 341 341 340 339 339 339 340 339 338 337 336 336 337 335 335 336 336 336 335 335 334 332 335 338 336 336 336 335 334 335 335 334 335 335 335 335 336 336 335 334 334 334 333 333 332 332 332 332 330 331 332 331 330 330 330 329 330 330 329 328
342 343 343 343 342 342 341 341 340 339 339 339 340 340 339 338 339 339 338 338 338 339 339 340 340 340 340 339 339 338 339 339 338 338 336 335 336 336 336 336 336 336 335 335 335 334 332 334 336 336 335 335 334 334 334 335 334 333 333 334 335 335 334 334 334 334 334 333 332 332 333 333 332 331 331 331 331 331 331 330 330 330 330 329 330
341 341 341 341 341 341 340 340 339 338 339 338 338 339 339 339 339 339 339 338 338 337 338 339 338 338 338 338 338 338 338 338 337 337 337 336 336 336 336 336 336 336 335 335 335 334 332 333 332 333 335 334 333 334 334 334 333 332 333 334 335 335 333 332 333 333 333 333 333 334 333 333 333 332 331 331 331 331 330 330 330 331 330 329 331
338 337 337 338 338 339 338 338 338 338 338 338 337 338 339 339 339 339 339 339 339 339 339 339 340 339 338 337 337 337 337 338 337 337 336 336 335 336 336 336 336 336 336 335 335 334 334 333 332 332 334 333 332 334 335 334 332 332 334 334 334 334 333 333 333 333 334 333 334 334 332 333 333 332 332 331 331 330 330 330 331 331 331 330 330
335 335 336 336 336 336 337 337 337 337 337 337 337 338 339 338 338 339 340 340 340 340 339 339 339 338 337 337 337 337 337 338 338 336 335 335 335 335 335 335 336 336 336 334 334 335 335 335 334 333 334 333 333 334 335 335 335 336 335 335 334 333 332 334 335 334 334 333 333 334 333 334 333 332 333 332 331 331 330 331 331 331 332 330 330
332 334 334 335 335 335 336 336 336 337 337 337 338 338 338 338 339 339 340 340 340 340 339 337 337 338 337 337 337 338 338 338 338 337 336 336 335 335 335 335 335 336 335 334 334 335 335 334 334 333 332 331 333 334 336 336 337 338 337 335 334 334 334 335 334 334 334 333 332 333 334 334 333 333 333 331 330 331 330 331 332 331 331 330 330
330 331 332 333 334 334 335 335 336 336 336 337 337 337 337 338 338 338 339 339 339 340 339 338 338 338 337 337 338 338 338 337 337 336 336 336 336 335 335 336 335 335 335 334 335 335 335 334 334 333 331 332 335 336 336 336 337 337 336 336 335 334 335 334 333 333 334 332 330 332 333 333 332 332 333 330 330 330 330 331 331 330 331 331 330
328 329 330 330 331 332 333 333 334 335 336 336 336 336 337 337 337 337 337 338 338 339 338 338 339 338 338 338 338 338 338 337 337 336 336 336 336 335 335 335 334 335 335 335 334 334 334 335 334 333 333 336 338 337 336 336 335 335 336 336 335 334 334 334 333 333 333 332 331 332 333 333 332 332 332 331 330 330 330 331 330 330 331 330 330
327 327 328 328 329 329 330 330 332 333 334 335 336 336 336 336 336 336 337 337 337 338 337 337 338 337 337 337 337 338 338 337 336 336 335 335 335 335 334 334 334 334 334 335 334 333 334 335 334 333 335 337 338 338 337 334 333 334 335 335 333 334 335 334 333 333 334 333 332 333 333 333 333 332 331 330 330 330 331 331 330 330 330 329 330
326 326 326 326 326 327 328 329 330 331 332 333 334 335 335 336 335 336 337 337 337 337 337 337 337 337 338 337 337 337 337 337 337 337 336 335 335 334 334 334 333 333 333 334 334 334 334 335 334 334 336 336 336 338 336 332 332 335 335 333 332 334 335 334 332 333 334 332 332 333 333 333 333 332 332 331 330 330 331 331 330 331 330 329 330
324 324 324 325 325 325 326 327 328 328 329 330 332 333 334 334 334 335 335 335 336 336 336 336 336 337 337 337 337 337 337 337 337 337 336 335 334 334 334 333 333 332 332 333 334 334 334 334 334 335 336 335 335 336 335 333 335 336 336 334 333 334 334 333 332 333 333 333 333 333 332 333 333 333 332 331 331 331 331 331 331 330 330 329 329
Wind_Speed
13 15 18 21 19 18 18 20 22 23 23 23 22 22 21 21 21 21 20 18 15 13 12 13 15 16 15 15 15 15 13 13 13 14 14 14 13 13 12 12 13 12 12 11 12 12 12 13 14 14 14 14 14 13 14 15 15 16 16 16 16 16 17 17 16 16 16 16 17 17 16 16 16 15 15 16 16 15 15 15 15 16 16 16 17
15 17 16 20 20 19 19 20 22 23 23 23 22 22 22 22 22 22 20 16 14 13 13 15 17 16 14 14 15 14 13 13 13 14 15 14 13 12 11 12 13 13 13 13 14 14 13 14 15 14 14 14 14 13 14 15 16 15 15 15 15 16 17 17 17 16 16 16 16 16 16 16 16 15 14 15 16 15 14 14 14 15 15 16 16
19 19 16 18 20 18 19 21 22 23 23 23 23 22 22 23 23 21 18 14 14 13 14 16 17 15 13 14 16 16 14 13 13 14 15 14 12 11 11 12 14 14 14 14 15 15 15 15 15 15 14 14 14 14 14 16 15 15 15 15 16 16 17 17 17 16 15 15 15 16 16 17 16 15 14 13 13 13 13 13 15 16 15 15 16
21 19 17 17 19 19 20 21 22 22 23 23 23 23 23 23 22 19 16 14 14 13 15 16 16 15 14 15 17 16 14 13 14 15 15 13 11 11 12 14 14 15 15 14 15 15 15 15 15 15 14 14 14 14 14 15 15 15 15 15 16 16 17 17 16 15 13 14 15 15 15 15 15 15 14 13 13 14 15 15 16 15 14 14 15
19 18 18 17 17 19 21 21 22 23 22 23 23 23 23 22 20 17 15 15 14 14 16 16 16 16 15 15 17 16 14 14 15 15 13 11 11 13 14 15 15 16 15 15 15 16 16 15 15 14 14 14 14 14 15 15 15 16 16 15 16 16 17 16 15 13 11 12 12 12 12 13 13 14 14 13 13 14 15 16 17 16 15 14 14
17 17 18 18 17 17 21 22 22 22 21 23 23 22 21 19 18 17 16 15 14 15 16 15 16 17 15 15 17 17 14 15 15 14 12 11 12 14 15 15 16 16 16 15 15 16 17 16 14 14 14 14 14 14 15 15 14 15 15 14 14 14 14 13 12 10 8 7 8 8 10 12 12 12 12 13 14 15 15 15 16 16 15 15 15
16 17 18 19 17 17 21 21 22 22 21 21 21 21 19 18 17 17 16 15 14 15 15 13 16 16 15 16 18 17 15 16 14 13 12 12 13 14 15 16 16 16 16 16 16 15 16 16 14 14 14 14 14 13 14 14 13 13 13 13 13 11 11 10 10 9 6 3 5 8 11 12 12 13 12 13 14 14 15 15 15 16 16 16 16
15 16 18 18 17 17 20 19 20 22 22 21 19 19 18 17 17 16 15 14 14 15 15 14 16 15 14 17 18 17 17 16 14 12 11 12 13 14 15 16 16 16 16 16 16 15 14 14 14 13 13 13 13 13 13 13 12 12 12 12 10 10 10 11 11 11 10 6 7 10 11 13 14 14 14 13 13 13 14 15 15 15 15 15 16
15 16 18 19 18 19 20 19 19 20 20 20 19 18 18 18 17 16 15 15 15 15 15 15 16 14 15 18 19 18 17 17 14 11 11 13 13 13 15 16 16 15 16 16 15 14 13 13 13 13 13 12 11 12 12 12 12 12 11 10 10 12 13 13 12 11 10 10 11 13 13 14 14 14 13 13 12 12 13 14 15 14 14 15 15
15 16 18 18 19 21 21 20 20 19 19 19 19 18 18 18 18 17 16 16 16 16 16 16 16 15 16 18 19 18 17 17 15 13 12 13 13 12 13 14 14 14 14 16 14 13 13 12 12 12 12 12 11 11 11 11 11 11 11 12 13 13 12 11 11 11 10 11 13 15 16 15 15 13 13 14 13 12 13 14 14 14 14 15 16
17 16 17 17 19 22 22 20 20 19 19 19 19 19 19 18 18 17 17 17 16 16 16 16 16 16 15 17 19 17 17 17 15 14 14 14 13 12 13 13 13 11 12 13 12 12 12 11 11 11 11 12 11 10 10 9 9 9 10 13 15 12 10 8 7 9 12 13 14 14 14 15 16 14 13 13 12 12 13 13 14 14 13 13 14
18 18 18 18 20 22 22 21 21 20 20 20 19 19 18 18 17 17 17 17 17 17 16 15 16 16 16 17 17 17 17 17 15 15 15 15 13 13 14 14 11 9 10 12 12 11 11 11 11 10 11 11 10 10 9 8 8 8 10 15 15 12 11 10 9 10 13 14 14 14 13 15 15 14 13 13 12 12 12 12 13 12 12 12 12
18 20 20 20 20 22 22 21 21 21 20 20 20 19 18 17 16 17 18 18 18 17 16 16 17 17 16 17 16 16 17 17 16 15 16 15 13 13 13 12 10 8 11 12 12 11 10 11 11 10 10 10 9 8 8 7 7 8 11 16 16 15 14 14 12 12 13 14 14 14 14 14 14 13 13 12 12 11 11 11 12 12 12 11 11
19 20 20 21 21 21 22 21 20 21 21 19 19 18 17 17 16 17 18 19 18 17 17 16 16 16 16 16 15 16 17 17 16 15 15 15 13 11 10 10 9 9 11 12 12 11 11 11 11 10 9 9 8 8 7 6 6 8 14 17 16 15 14 12 11 12 13 14 14 13 13 13 12 12 12 12 11 11 11 11 11 11 10 10 10
19 20 20 21 21 20 20 20 20 19 19 18 17 17 17 17 17 17 18 19 19 18 18 17 16 17 15 15 15 16 16 16 16 14 13 13 13 10 9 9 9 11 12 11 11 11 12 12 12 10 9 8 7 7 7 6 6 10 16 16 13 10 10 9 9 12 12 13 13 13 13 12 11 11 11 11 11 11 11 10 10 9 9 9 10
19 20 20 21 21 20 19 18 18 19 18 17 16 16 16 17 18 18 18 19 19 19 19 18 17 17 15 14 15 16 15 14 15 14 13 12 12 10 10 9 10 12 12 11 11 10 11 12 11 10 9 8 8 7 6 6 7 12 15 12 10 9 11 11 9 10 11 11 12 12 12 12 11 11 11 11 10 10 9 9 9 8 8 9 10
17 19 20 21 22 21 19 18 17 17 17 16 16 16 16 17 18 18 19 19 19 20 20 19 18 16 15 14 15 15 14 13 13 13 12 12 11 10 10 9 11 13 12 10 10 10 10 11 11 10 9 8 8 7 6 7 8 12 14 11 11 12 13 13 10 10 10 10 11 11 12 11 11 11 11 10 10 9 9 9 8 8 9 11 11
16 17 19 21 21 20 19 19 18 16 15 15 15 16 17 17 18 19 19 19 19 20 21 19 19 17 15 14 14 15 13 11 11 11 11 12 11 11 10 8 12 13 12 10 9 9 9 10 10 9 9 8 7 7 7 8 10 13 15 14 15 15 15 14 10 9 10 10 11 11 11 11 10 10 10 10 10 9 8 8 8 9 11 11 10
15 15 17 19 19 18 19 19 19 18 16 15 15 15 17 18 19 20 19 19 20 20 21 19 18 17 16 15 15 15 13 11 10 10 10 12 11 11 11 10 12 13 11 9 8 8 8 8 9 9 8 7 7 7 8 9 12 16 17 16 15 14 13 11 9 9 10 10 10 11 11 11 11 10 10 10 10 9 8 9 9 9 9 9 9
13 13 14 16 16 17 18 18 18 18 16 17 17 15 17 19 19 19 20 20 19 19 19 19 18 17 17 16 16 15 13 11 10 9 9 10 11 10 12 12 13 13 11 9 8 7 7 8 9 9 8 7 7 8 9 11 16 18 17 14 12 11 9 8 8 9 9 10 11 10 10 11 11 10 9 9 9 9 8 9 9 8 8 8 8
11 12 13 13 15 17 17 17 17 17 17 18 18 16 17 18 18 19 19 20 19 18 17 17 18 17 17 17 16 15 12 11 10 9 8 8 11 11 12 13 13 13 12 10 8 7 6 8 10 9 8 7 8 9 10 14 17 16 13 12 12 10 7 7 8 9 9 10 10 10 10 10 9 9 8 8 8 8 8 8 8 7 7 7 7
11 11 12 12 15 18 16 17 20 19 19 20 19 16 17 17 16 17 17 17 17 16 16 17 18 17 17 17 15 13 12 12 12 10 9 8 10 11 11 13 14 14 12 11 8 7 7 8 10 10 8 8 10 10 10 14 14 13 12 11 10 7 6 7 8 9 10 10 11 10 10 9 8 8 8 8 8 8 8 8 7 7 7 7 7
10 10 11 11 14 17 15 17 21 21 18 19 19 17 16 17 16 16 16 15 16 16 16 16 17 17 16 14 12 12 11 11 12 11 11 11 10 10 11 13 16 15 12 11 9 8 7 9 11 11 9 9 9 7 7 10 10 11 10 9 7 7 7 8 8 9 10 10 10 10 9 8 8 8 8 8 8 8 8 8 7 7 7 7 7
9 10 12 12 12 14 14 16 19 19 17 16 17 17 16 17 17 16 16 15 15 16 16 15 14 15 15 13 12 12 10 10 12 12 13 13 10 9 10 13 17 16 13 11 9 9 8 9 12 11 9 6 6 7 7 8 4 4 5 6 7 7 7 7 8 9 9 10 10 10 10 8 8 8 7 8 8 8 8 7 7 7 7 6 6
10 11 12 13 13 13 14 15 16 16 15 15 16 17 16 17 17 16 16 16 14 14 15 14 12 12 13 12 13 12 10 10 13 13 13 12 10 10 11 13 16 16 15 11 9 10 10 11 13 12 8 7 7 7 7 6 4 2 4 7 7 6 7 7 8 9 9 9 10 10 9 8 7 7 7 7 7 7 7 7 6 6 7 6 6
9 11 10 12 13 13 14 14 15 15 13 13 15 16 16 16 15 13 13 13 14 13 13 13 12 11 10 11 12 11 11 11 12 13 13 12 12 12 12 14 15 16 16 13 11 12 11 12 13 12 9 7 7 6 6 6 5 5 6 6 6 5 6 7 7 8 8 8 9 9 8 8 8 7 7 6 6 6 6 6 6 6 7 7 6
8 10 9 11 11 10 11 11 12 12 11 10 11 13 14 12 9 9 11 13 15 14 12 12 12 12 12 11 12 12 11 10 10 12 12 13 13 12 13 14 14 16 16 14 13 13 12 12 13 12 9 8 8 7 7 6 5 5 6 5 5 5 5 7 7 8 8 7 7 7 7 8 8 7 6 6 6 6 6 5 5 5 7 7 6
7 10 8 9 9 7 8 8 8 8 9 10 9 9 10 7 5 9 11 13 15 13 11 10 10 12 13 12 12 12 10 10 10 10 10 11 11 12 13 14 14 15 16 14 13 13 12 12 12 11 10 9 9 8 7 6 6 5 5 5 5 4 5 6 6 7 7 7 7 6 7 7 7 6 6 6 6 5 5 6 6 5 7 7 6
5 8 7 7 7 7 6 7 5 4 7 8 7 6 6 7 6 8 8 9 10 10 9 9 9 10 10 10 10 9 9 10 11 9 9 11 11 13 13 14 14 14 15 14 14 14 13 12 12 11 11 10 10 8 8 7 6 6 5 5 5 4 5 5 5 6 6 8 7 5 7 8 7 6 6 6 6 5 5 6 6 5 6 6 6
4 8 10 9 7 6 7 6 5 4 6 5 6 7 7 9 8 8 8 8 8 8 8 8 8 7 6 7 8 8 7 7 9 9 10 10 10 12 13 14 14 13 14 14 13 14 13 12 12 12 12 11 10 9 8 8 7 6 5 5 5 5 5 4 4 5 5 8 7 4 6 9 8 7 7 7 6 6 6 5 6 6 6 6 6
8 10 12 10 6 7 8 8 8 8 7 5 6 8 8 9 9 11 10 8 8 8 7 7 6 5 5 6 7 8 7 5 6 7 7 9 11 12 12 13 13 12 13 13 13 13 13 12 12 13 12 11 10 9 9 8 8 7 6 6 5 5 4 4 4 4 5 7 7 6 7 7 8 9 8 7 6 6 6 6 6 6 6 6 6
6 4 8 8 5 6 7 6 6 7 8 7 7 7 7 7 8 10 10 9 8 7 6 5 5 5 5 6 7 7 7 7 6 6 7 10 12 11 11 12 12 12 12 12 13 13 13 12 12 12 11 10 10 9 9 8 8 8 7 7 6 5 5 4 4 5 5 5 6 7 7 6 7 10 9 8 8 7 6 6 6 6 6 6 6
3 3 6 7 6 7 7 7 6 7 9 9 9 9 9 9 8 8 8 7 7 6 6 5 5 5 6 7 7 7 8 9 8 10 11 11 11 10 10 10 11 12 12 12 13 13 13 12 12 12 10 10 10 10 9 9 8 8 8 7 7 6 5 5 5 5 6 6 6 7 7 7 7 8 8 9 10 9 7 7 6 7 7 6 6
4 4 6 8 8 7 9 10 10 10 11 10 11 12 13 12 9 7 7 6 6 6 6 5 5 5 6 7 8 8 10 10 10 12 13 12 11 9 9 10 9 11 11 12 13 12 13 14 13 12 12 12 11 11 10 10 9 8 8 8 7 6 6 6 6 7 7 6 6 6 7 8 8 8 7 7 9 9 8 9 8 7 7 6 6
5 5 6 8 8 7 9 11 11 12 13 13 13 13 13 11 8 7 7 7 7 7 6 6 6 6 7 7 8 8 9 10 10 11 13 12 10 10 10 11 11 10 12 12 14 13 13 14 14 13 13 13 12 12 11 10 10 9 9 8 7 7 7 7 7 7 7 6 6 6 7 8 9 10 9 6 7 9 10 10 9 8 7 7 7
5 6 7 8 8 8 9 10 10 11 13 15 14 13 11 10 8 7 7 7 7 7 7 6 7 7 7 8 8 8 9 10 10 11 13 11 10 12 11 10 12 11 13 15 15 15 14 15 15 14 13 13 13 12 12 11 10 10 9 8 7 8 7 7 7 7 7 7 7 7 6 7 7 7 9 7 7 9 10 11 10 9 8 8 8
5 5 6 8 8 8 8 9 10 10 11 11 10 9 9 8 8 7 7 7 7 8 7 7 8 8 7 6 6 8 9 10 11 11 12 12 12 14 13 11 12 12 12 15 17 16 15 15 15 15 13 13 13 13 12 11 10 10 9 9 8 8 8 8 8 8 8 7 7 8 7 6 6 6 8 9 10 10 11 12 11 11 12 11 10
4 4 5 7 7 6 7 7 8 8 7 7 7 8 8 8 8 8 8 8 8 9 8 9 9 8 7 6 7 8 9 10 11 11 12 14 15 16 16 13 13 13 11 12 15 17 15 14 15 16 15 14 14 14 13 12 11 10 10 10 9 9 8 8 9 9 9 8 8 8 7 7 7 7 8 9 11 11 11 12 12 12 12 12 12
3 4 5 6 5 4 4 5 5 5 5 5 7 8 9 9 9 9 9 10 10 10 10 10 9 9 8 8 7 8 9 9 11 12 12 13 15 17 18 14 14 15 13 12 16 18 17 15 15 16 16 15 14 14 13 12 11 10 10 10 9 9 9 9 10 10 9 9 9 9 8 7 7 9 9 10 12 13 12 12 11 11 10 9 9
3 2 3 3 2 1 1 2 3 2 3 4 6 8 10 10 11 11 11 10 10 11 11 10 9 8 7 8 8 8 8 8 11 15 14 15 16 17 18 17 15 16 15 14 17 20 19 16 15 16 16 15 15 14 13 12 11 10 9 9 9 9 9 9 9 10 9 9 10 11 9 8 7 9 10 9 10 12 12 11 11 12 11 8 6
3 2 1 0 1 1 2 1 3 3 1 4 5 8 10 10 10 11 11 10 10 11 10 9 8 7 6 8 8 8 8 8 12 16 16 19 21 19 19 19 17 17 17 18 18 19 18 15 16 17 16 16 16 14 13 12 12 10 9 10 9 8 9 9 10 11 10 10 11 11 9 8 8 9 10 9 8 10 10 9 10 11 11 8 6
6 6 6 4 3 3 4 3 4 4 3 4 5 7 8 8 9 9 9 9 11 11 10 8 8 6 5 7 8 8 8 9 13 16 17 20 22 21 20 20 19 18 20 20 18 18 17 16 17 18 17 17 16 14 14 13 12 12 10 9 8 8 9 11 11 11 11 11 12 10 9 9 8 8 10 10 9 9 9 8 8 8 8 7 7
11 12 11 8 7 7 7 6 7 5 4 4 5 6 7 7 7 7 7 9 11 11 10 10 9 8 8 9 10 10 11 12 12 14 17 19 20 21 22 21 21 20 21 22 19 18 18 17 18 19 17 17 17 15 17 16 14 12 9 7 6 6 7 10 12 13 13 13 11 11 12 10 8 8 9 9 9 10 9 9 8 7 6 6 8
14 13 12 10 10 10 9 8 6 4 4 4 4 6 6 7 7 7 7 9 10 8 9 9 9 10 10 11 12 12 13 13 13 15 17 19 18 20 22 22 22 21 22 23 21 20 19 17 19 22 18 17 18 16 17 18 16 12 8 5 4 4 5 7 11 12 13 13 12 13 14 11 10 10 9 9 10 10 9 8 8 8 7 6 7
15 14 13 11 10 9 9 7 5 4 4 3 3 5 6 6 6 5 5 6 7 7 7 7 7 9 10 12 13 13 14 15 15 16 18 21 21 20 22 23 22 21 22 24 23 21 20 18 20 25 23 20 18 15 14 17 15 12 9 6 3 3 4 5 9 10 12 15 14 14 13 12 13 12 10 10 10 10 9 9 8 8 8 7 7
16 14 14 13 12 10 9 7 6 6 5 4 4 4 5 5 5 5 4 5 5 5 6 7 7 8 10 11 11 12 14 15 16 16 17 20 22 22 21 22 22 22 23 25 24 21 21 21 22 25 27 25 19 14 14 14 13 12 12 9 5 3 2 5 6 5 9 13 14 15 14 14 15 13 11 12 12 10 10 10 10 10 9 8 8
14 13 13 14 14 14 13 10 9 8 6 6 6 5 5 5 5 5 5 6 6 5 6 8 8 9 11 12 12 12 14 15 15 16 16 18 20 22 22 23 24 23 24 26 26 25 23 23 23 24 26 23 17 14 14 13 12 12 13 12 10 6 3 6 5 3 5 9 13 16 15 14 15 14 13 12 12 11 11 11 11 11 9 8 9
13 13 14 14 14 15 15 13 12 11 9 7 7 7 6 6 5 6 6 6 6 6 6 7 9 10 11 12 12 12 13 14 15 16 17 17 19 22 23 24 24 24 25 27 29 29 26 24 24 24 21 17 14 13 13 14 14 13 14 14 12 10 8 8 9 7 5 6 9 12 13 13 13 14 14 13 13 12 11 11 11 11 9 10 10
14 14 14 13 13 13 14 13 12 12 11 10 9 8 7 7 7 7 7 7 7 7 7 8 9 10 11 12 12 12 12 14 15 16 18 17 18 21 22 23 24 26 29 28 29 30 27 24 25 24 20 15 14 14 13 16 18 14 14 16 14 13 12 11 13 12 8 6 6 8 10 12 11 13 15 14 13 13 12 12 11 10 9 10 11
15 14 13 13 13 13 13 13 12 11 11 11 10 9 8 8 8 8 9 9 8 9 9 9 10 10 11 12 12 12 12 13 13 14 16 16 17 19 19 22 24 26 27 26 28 30 28 26 25 23 21 18 15 15 15 17 18 14 14 16 16 14 11 10 13 14 10 7 6 6 10 12 10 12 15 16 15 14 13 13 11 10 10 11 12
15 14 14 13 13 13 13 12 12 11 11 11 10 10 9 8 8 8 9 10 10 11 11 11 12 12 12 13 12 11 11 12 12 12 12 13 15 16 17 19 21 21 21 25 29 29 27 27 26 22 20 21 20 19 19 16 15 14 14 17 17 14 12 11 13 14 11 8 6 5 9 13 12 12 14 17 17 15 14 14 12 11 11 11 12
Wind_Direction
141 130 142 160 159 156 156 161 165 164 164 162 162 161 160 156 151 147 143 139 134 133 130 127 123 116 111 110 106 101 101 101 104 104 105 103 97 92 92 94 96 97 101 106 108 109 111 108 106 103 100 98 98 99 100 99 97 96 97 98 98 96 97 99 97 96 95 94 92 89 85 82 80 78 81 85 84 83 81 75 70 69 70 72 72
142 134 143 155 157 157 156 160 161 161 162 160 161 160 158 154 150 147 143 141 138 136 127 128 123 114 112 112 110 108 108 107 107 107 106 102 99 100 101 100 98 99 102 103 103 105 109 108 105 103 101 99 100 102 103 101 99 96 96 99 99 98 98 99 98 97 96 95 94 94 90 85 79 76 80 89 91 90 87 81 75 72 74 75 74
132 133 140 153 157 156 157 158 159 158 159 158 159 158 156 152 149 147 145 143 139 134 129 133 125 115 117 114 116 116 111 108 108 107 104 102 103 107 106 103 102 103 103 101 102 103 105 105 104 103 102 101 102 103 103 100 98 96 95 97 98 99 99 97 94 91 89 89 89 88 85 81 78 76 75 80 82 78 74 76 80 77 75 75 75
124 133 137 149 153 153 156 156 158 155 154 156 156 154 152 150 149 147 143 141 137 132 132 132 123 121 121 116 118 117 113 111 109 108 107 108 110 109 108 106 105 106 105 101 101 103 104 104 105 104 103 102 104 104 101 98 98 99 98 97 100 101 100 95 87 83 82 84 86 83 78 77 76 74 73 72 70 67 65 70 79 83 81 78 77
123 136 138 143 144 150 154 153 154 151 151 151 152 151 151 150 148 145 141 139 135 134 133 128 126 128 122 119 121 116 114 111 108 110 112 113 112 111 111 108 108 107 106 103 101 104 105 103 103 102 102 102 103 103 101 99 99 101 101 101 104 104 99 89 82 80 79 81 84 80 74 77 76 72 73 74 73 69 69 70 70 75 82 82 80
126 136 140 141 138 148 153 152 152 149 148 147 150 150 149 148 145 143 141 140 137 139 134 127 130 130 123 126 125 120 119 114 113 118 117 112 111 113 111 109 107 105 105 105 102 102 103 102 102 101 101 100 100 100 102 101 100 103 105 105 106 107 100 88 85 86 91 91 78 69 69 76 77 74 73 75 77 76 77 77 72 71 74 77 78
128 134 143 144 140 152 152 149 150 150 147 145 146 145 146 143 142 142 141 140 135 138 134 129 131 129 128 133 128 123 124 120 124 127 120 111 110 113 111 110 107 106 106 104 103 102 103 103 103 103 100 99 100 101 102 102 102 105 103 102 103 102 98 90 86 77 74 89 73 68 73 77 78 80 80 79 81 80 81 81 79 75 74 74 76
128 138 146 142 143 153 150 146 145 150 149 147 147 143 143 140 140 139 139 139 134 136 135 132 131 131 135 137 131 128 129 127 130 128 119 114 111 114 114 113 109 106 106 104 103 103 102 102 103 103 100 99 101 103 101 101 101 101 100 100 97 91 90 95 91 73 62 69 76 75 80 83 84 84 84 85 83 82 84 83 82 83 82 81 81
130 141 143 139 146 153 150 149 144 146 148 148 148 143 142 140 140 140 142 141 137 139 138 136 135 135 135 136 135 133 134 133 134 126 117 117 115 116 116 114 111 107 108 108 105 105 103 101 103 103 103 101 101 101 98 98 98 97 97 90 86 89 89 88 77 63 68 81 77 76 87 90 87 86 87 89 85 84 87 85 85 90 90 88 86
132 139 140 135 148 158 154 153 150 147 146 146 147 144 144 144 144 146 146 143 140 141 140 139 139 139 137 139 140 139 139 138 137 130 122 122 121 117 113 113 110 109 114 112 107 106 106 105 106 108 108 106 101 99 98 97 97 96 91 90 96 100 97 87 67 56 72 84 78 78 85 88 87 86 90 92 88 91 92 86 83 85 86 86 85
134 136 136 133 148 161 158 155 154 151 151 150 149 148 147 148 150 149 146 143 141 141 141 141 142 143 142 145 145 144 145 143 141 137 133 131 127 119 113 113 109 108 116 110 104 106 109 113 113 112 109 104 100 96 96 93 94 93 90 102 106 102 99 86 67 74 85 88 88 87 85 85 87 88 89 90 90 91 89 82 78 78 80 81 82
138 136 135 139 153 161 161 160 159 158 158 156 154 154 153 152 152 150 147 144 142 141 141 142 144 144 144 146 147 150 150 146 143 140 142 141 135 126 121 121 117 113 118 112 106 107 108 113 114 112 106 102 100 95 91 87 87 83 94 111 106 96 88 70 69 88 90 89 91 91 89 87 88 90 89 87 87 88 87 81 77 77 77 77 79
139 136 136 141 152 161 164 164 165 166 163 162 161 160 157 154 152 149 147 142 141 140 141 143 146 148 148 149 150 154 154 151 147 144 146 148 144 137 131 132 130 125 123 115 109 111 111 112 114 111 105 101 96 93 88 85 81 79 102 112 103 94 83 72 82 90 87 90 92 92 92 91 91 93 90 87 85 85 89 85 79 79 80 79 79
137 135 138 140 148 160 165 165 166 167 164 165 163 161 156 152 150 146 144 141 141 142 144 144 146 148 150 154 157 158 157 156 155 153 152 152 152 147 143 142 139 135 128 115 109 115 119 118 116 111 104 98 92 91 88 86 81 88 112 115 109 104 88 76 89 93 91 94 96 97 96 97 97 94 90 88 84 84 88 87 83 80 80 79 76
137 137 141 141 147 156 162 164 162 161 162 162 159 157 152 150 148 146 144 143 146 148 148 147 146 148 148 152 158 161 159 158 163 164 161 159 159 155 155 157 150 142 131 114 110 116 122 122 117 112 105 98 94 90 87 85 81 102 120 121 116 109 85 76 90 96 97 97 98 99 99 101 97 93 92 90 87 87 88 88 82 76 75 74 72
140 141 141 144 147 152 157 160 158 156 156 154 153 152 150 151 151 150 149 150 152 153 151 151 150 153 153 147 151 159 160 161 168 170 169 165 162 161 162 164 157 146 131 116 113 116 123 124 119 114 107 99 93 88 88 84 88 113 123 119 107 94 80 84 92 94 94 96 98 100 100 102 101 99 99 97 94 92 90 86 82 79 77 76 74
143 141 142 146 147 150 153 155 155 153 151 152 152 153 153 154 155 155 156 156 156 156 156 156 157 158 155 148 148 156 160 163 170 176 178 171 166 167 168 163 158 147 132 122 118 118 123 126 123 117 106 95 89 86 87 85 98 122 125 114 102 92 83 85 90 90 92 96 98 99 100 106 111 106 100 99 97 94 94 92 87 81 77 78 80
144 142 145 148 148 150 150 152 151 148 150 153 155 157 159 158 160 161 163 162 159 160 161 162 164 163 159 154 153 157 160 160 168 178 181 177 171 169 170 165 161 151 135 128 123 123 127 129 128 119 105 94 90 87 90 95 108 123 122 111 101 92 85 85 90 90 90 92 93 95 100 108 111 103 98 99 97 94 94 95 90 83 82 86 87
144 143 149 151 149 149 147 148 148 149 150 151 158 163 164 164 165 166 169 168 163 163 167 170 168 167 166 161 159 157 155 153 161 170 178 184 179 175 175 170 166 156 142 135 130 130 132 135 133 121 108 98 94 94 98 104 114 120 115 107 100 91 83 84 93 94 90 90 92 96 104 107 104 101 100 98 96 93 92 94 92 90 92 95 91
147 146 155 153 146 144 145 146 145 149 150 154 163 167 168 168 169 171 174 173 168 167 172 177 172 170 169 166 163 156 155 154 155 162 173 181 173 174 180 175 171 161 151 145 140 142 144 143 139 125 112 102 99 101 103 110 116 115 107 99 89 72 67 81 90 90 90 93 95 102 108 106 102 102 101 99 97 95 94 92 93 94 93 94 92
150 150 157 148 140 143 146 145 143 149 156 160 164 169 170 168 170 173 176 177 173 169 172 178 176 173 171 170 167 161 161 155 153 161 162 168 166 171 181 177 173 166 158 155 153 154 157 153 145 131 117 110 103 102 105 116 117 107 98 91 77 64 73 93 94 94 98 100 102 109 111 106 105 104 101 100 99 98 95 91 92 96 93 90 89
156 158 152 138 141 149 150 147 151 161 165 166 167 169 169 166 169 171 175 178 176 171 170 175 176 176 174 173 170 168 168 156 158 163 156 167 176 179 185 178 173 172 166 162 164 167 170 163 151 137 123 107 100 101 106 115 110 97 92 84 75 81 94 93 91 95 98 101 106 113 112 109 110 107 104 102 100 100 97 93 92 91 91 88 86
163 158 142 138 151 157 153 150 161 168 163 167 171 169 165 166 169 170 172 177 179 177 172 174 177 177 176 174 176 175 174 164 162 165 163 170 182 190 190 178 172 173 174 169 169 178 178 168 159 145 125 108 111 124 123 121 105 81 74 73 89 110 103 95 93 91 94 103 111 114 111 109 110 107 106 105 103 101 99 96 92 90 90 86 84
161 149 140 144 156 162 156 157 168 170 162 168 173 171 168 169 172 172 174 181 186 186 180 177 179 180 173 175 183 177 175 169 162 168 170 170 180 191 186 177 173 172 173 173 176 184 182 173 166 151 137 139 155 158 148 149 138 64 67 96 114 116 109 106 101 96 97 104 111 113 114 115 111 108 107 107 106 103 103 99 94 94 95 90 87
147 139 144 147 155 163 163 164 168 170 170 171 174 175 174 174 177 175 178 185 190 193 189 182 183 185 176 181 190 179 179 176 168 175 172 167 173 176 175 173 174 173 168 171 183 186 181 177 171 164 170 192 189 167 154 161 172 138 117 121 123 124 119 113 110 105 101 105 113 117 119 119 110 108 109 108 107 105 106 103 99 98 98 94 89
134 135 147 147 153 161 162 166 168 173 178 176 177 177 179 182 181 179 180 187 194 196 193 192 189 186 184 193 198 187 189 187 180 186 178 172 171 168 174 174 176 177 172 176 186 186 182 180 179 183 197 202 185 168 163 163 159 142 131 132 135 135 125 117 116 109 102 106 119 127 129 126 117 117 121 115 112 110 108 107 104 97 99 98 92
138 142 152 145 150 159 154 159 171 176 177 183 182 178 187 187 182 189 188 194 200 193 191 204 198 189 192 197 200 193 192 193 195 198 188 180 176 172 175 175 178 180 183 188 185 186 187 184 186 193 203 197 180 172 169 162 158 147 141 143 137 134 130 123 121 117 116 114 124 135 131 130 129 127 125 120 125 122 110 115 115 93 97 106 102
134 134 144 140 147 155 147 155 172 180 186 198 194 185 192 184 188 204 196 194 200 192 191 213 209 199 199 197 201 197 195 203 207 208 199 192 183 180 175 174 182 182 190 196 185 186 191 189 190 196 203 197 183 176 169 160 158 154 148 143 136 135 129 124 125 129 130 127 136 143 130 132 139 132 125 125 134 131 108 116 124 101 101 115 112
122 123 125 114 116 132 146 162 179 212 220 209 184 182 189 175 185 205 198 192 205 204 194 208 209 202 201 198 203 200 199 207 211 214 209 208 196 187 180 177 186 187 190 195 190 193 195 195 195 198 201 196 189 181 168 163 163 160 155 144 138 139 132 134 141 138 133 132 138 147 144 148 152 143 137 139 138 137 129 125 128 122 124 128 120
84 79 83 87 91 126 153 163 175 206 231 221 173 174 179 172 174 191 201 198 211 214 195 203 206 204 202 197 208 204 199 207 218 219 209 216 211 196 188 185 191 190 191 195 194 198 199 197 199 200 200 197 191 183 174 171 170 166 163 154 148 151 148 148 145 134 136 138 132 137 161 165 162 153 150 152 145 142 144 138 135 137 141 137 129
60 64 78 98 124 155 163 169 182 184 195 208 182 173 166 169 175 182 195 200 208 209 200 207 203 209 203 193 214 207 196 205 228 232 215 222 224 210 199 193 194 191 190 197 198 199 201 201 200 201 202 201 191 184 185 181 176 171 171 165 160 166 161 158 149 139 146 146 139 147 169 177 172 168 161 154 148 151 153 146 145 149 147 141 138
62 94 108 117 145 167 167 176 192 186 181 177 170 168 161 179 193 186 188 193 204 207 204 212 205 213 202 194 218 212 200 204 211 225 222 228 231 225 214 199 195 193 192 200 204 200 201 203 202 204 206 203 193 188 192 188 183 178 173 169 173 180 168 166 161 150 156 156 157 161 166 176 179 178 170 158 154 158 163 159 156 155 149 146 145
122 166 154 152 173 176 178 187 191 189 186 176 172 178 176 185 202 201 198 196 205 212 209 216 215 218 208 200 211 209 205 203 203 211 212 223 231 232 234 221 200 196 197 200 205 202 202 205 203 203 203 201 196 193 195 191 188 178 172 176 183 184 174 174 169 162 165 167 171 172 171 174 176 179 177 173 171 169 167 163 157 156 155 153 152
159 170 180 180 186 183 185 191 189 188 190 189 183 186 186 186 193 203 211 211 215 221 218 220 224 227 222 211 208 209 210 207 211 216 216 221 227 229 244 249 223 200 199 201 205 206 204 205 205 201 197 200 201 197 197 194 190 180 175 186 188 180 181 181 173 172 174 173 175 177 181 177 172 176 177 182 188 193 186 170 161 163 164 159 156
166 174 195 195 198 199 193 194 194 188 192 198 195 194 194 190 194 200 209 217 220 228 229 229 234 235 232 223 213 214 219 219 219 223 226 228 231 235 234 244 245 219 204 203 205 210 211 208 207 202 197 201 203 199 201 197 191 185 181 189 187 180 191 188 177 180 179 180 181 184 191 183 180 181 176 175 191 203 193 174 169 170 168 160 154
178 175 196 200 199 202 200 200 201 197 202 207 203 201 197 193 202 206 210 216 220 230 232 235 244 243 238 231 219 214 222 228 227 225 228 226 228 241 238 236 252 241 214 207 206 210 215 212 209 205 201 202 203 202 202 199 192 186 183 187 189 187 192 187 185 188 183 184 186 189 195 188 186 180 171 168 174 187 178 165 170 167 156 150 146
193 183 201 207 202 198 200 205 207 210 217 218 213 210 206 205 209 213 220 221 226 233 231 233 240 242 242 240 225 216 223 230 229 227 231 231 226 238 243 233 244 251 231 216 211 213 216 214 212 209 206 205 206 204 201 199 195 188 185 188 191 191 193 190 189 191 189 193 193 189 193 192 187 173 166 161 162 176 170 156 159 155 147 143 142
191 191 201 214 212 197 199 209 214 222 232 236 233 228 224 223 222 224 227 226 230 234 233 234 233 233 235 238 232 222 224 227 230 232 231 230 226 229 236 231 230 240 246 235 223 221 221 215 212 209 209 208 207 206 203 200 196 191 189 192 193 191 193 195 193 197 197 196 196 193 188 188 184 172 169 165 161 167 165 154 153 153 150 148 149
192 197 194 216 222 203 201 206 216 228 241 247 244 242 237 235 236 236 235 235 236 236 234 233 231 229 228 230 229 222 224 224 232 239 232 227 226 225 230 232 227 225 232 242 237 230 225 217 212 209 207 209 207 206 206 203 200 199 194 194 194 190 193 200 199 206 206 193 194 197 188 186 186 175 174 179 172 168 168 165 164 167 166 164 166
198 192 184 215 234 216 192 167 174 202 252 253 243 246 243 241 244 243 242 242 241 241 239 239 238 235 231 231 228 228 231 228 234 240 240 244 241 234 234 233 229 222 217 225 234 233 227 219 213 211 209 208 208 207 207 205 203 201 196 194 194 193 199 207 206 210 211 199 200 205 194 186 187 177 178 186 179 175 177 178 182 186 183 178 189
142 120 124 305 341 4 21 113 127 105 294 265 254 255 255 253 251 249 251 251 251 249 243 241 245 246 245 247 252 249 237 229 240 245 248 252 249 243 240 237 235 231 223 219 225 231 232 227 216 213 215 212 208 204 203 204 203 199 192 193 197 198 203 211 215 216 213 207 207 209 197 190 188 180 183 189 184 182 184 188 195 195 187 181 196
87 69 43 25 28 26 27 44 59 47 345 310 295 280 275 269 266 267 270 270 269 268 264 260 261 262 260 262 268 266 250 242 249 252 252 249 245 241 240 240 238 234 231 226 225 228 228 229 222 216 219 218 212 204 200 201 205 204 197 195 194 198 212 220 222 219 215 216 212 204 195 193 192 187 191 193 190 192 189 194 201 195 191 185 183
60 51 39 37 42 34 29 32 31 11 337 332 305 290 293 286 281 284 282 275 272 275 281 279 274 265 256 255 255 255 256 254 249 249 253 249 240 237 237 237 236 232 233 230 228 229 224 225 227 222 219 221 218 208 201 203 209 208 199 198 192 194 219 226 225 221 215 218 215 202 199 195 190 195 200 197 197 200 194 193 195 192 205 198 182
50 46 39 35 34 28 24 22 18 355 339 340 307 297 301 293 289 286 279 279 277 275 276 275 274 267 259 258 255 253 255 253 244 241 251 252 243 239 236 237 235 231 232 231 229 228 220 217 226 226 220 219 219 210 203 207 214 213 199 193 183 199 224 212 212 217 212 214 215 206 203 195 190 199 205 204 203 201 194 190 188 188 201 201 189
44 41 37 33 30 26 21 18 17 9 358 349 319 303 299 294 295 291 280 279 277 272 275 272 273 271 262 259 258 257 254 249 245 241 244 248 247 244 240 238 235 230 231 232 231 229 219 210 219 226 223 219 215 205 200 207 215 217 207 197 174 206 230 190 189 207 208 211 212 206 204 197 194 199 204 208 207 198 195 191 188 188 190 195 193
38 33 31 30 31 28 21 18 23 22 18 10 344 307 299 302 305 303 291 282 274 270 274 271 269 269 261 255 252 251 249 248 249 245 242 244 248 248 243 238 236 231 229 229 228 227 220 213 215 222 222 220 216 202 195 202 211 217 213 216 226 223 192 160 171 201 204 209 213 205 201 198 197 197 201 211 209 197 197 196 192 191 185 188 193
41 36 31 26 25 24 21 22 23 21 21 9 347 322 310 310 311 309 297 289 288 280 273 271 270 270 266 259 255 252 251 252 252 249 244 244 248 248 243 240 239 235 229 227 227 224 221 217 214 218 219 216 213 201 192 194 202 214 217 223 235 232 184 172 186 185 185 208 216 207 197 194 198 201 202 212 211 198 200 203 192 188 183 179 193
44 42 39 32 26 23 21 23 24 21 22 14 356 344 332 324 317 309 300 295 296 297 290 280 274 270 268 265 263 260 254 253 252 252 250 244 245 246 244 243 241 238 233 228 228 226 224 220 217 225 225 214 209 205 192 188 196 210 216 221 229 227 214 216 222 214 197 201 204 200 195 190 196 204 203 210 213 198 197 206 195 187 185 180 193
44 40 40 37 33 29 23 24 23 16 14 13 5 352 339 328 318 314 310 303 299 301 296 286 278 272 271 267 266 264 259 257 253 255 256 247 244 245 245 244 241 240 237 229 226 226 225 221 219 226 227 214 212 213 197 193 201 209 211 216 227 229 223 230 236 232 226 212 194 191 188 186 194 205 203 208 214 202 196 206 201 191 185 181 187
41 38 37 35 34 31 25 25 22 12 5 3 358 350 346 334 324 327 324 314 308 303 296 291 286 279 276 273 270 266 262 263 258 257 259 252 248 244 240 242 240 240 236 225 222 224 222 220 218 221 223 217 214 216 210 205 206 204 202 208 218 224 223 230 236 233 228 215 202 188 182 183 190 200 202 204 208 204 199 202 199 193 190 185 180
38 36 35 33 32 30 25 25 22 15 8 0 353 345 342 335 327 326 320 312 308 304 299 295 290 284 281 277 275 269 262 263 260 259 260 253 250 244 239 243 242 243 239 222 219 223 222 221 218 216 219 219 219 219 218 214 206 202 205 209 213 216 216 222 229 228 225 210 192 191 192 191 190 194 201 203 204 203 199 197 195 194 194 187 178